WJA3254 CYYZ-KATL

Flight info

Callsign WJA3254
Flight time 1h 48m
Altitude 36000
Route BETES3FOXEE/06L BETES3 FOXEE Q145 HVQ HLRRY ONDRE1
Aircraft B38M/M-SDE1FGHILORVWXY/HB1

Departure

Time 2026-05-08 00:25
Airport Toronto Pearson International Airport (CYYZ)

Arrival

Time 2026-05-08 02:14
Airport Hartsfield Jackson Atlanta International Airport (KATL)
Time Latitude Longitude Altitude Speed Heading
2026-05-07 23:42 43.68489 -79.62055 564 ft 0 kts 60°
2026-05-08 00:07 43.68488 -79.62058 564 ft 2 kts 60°
2026-05-08 00:07 43.68480 -79.62078 564 ft 2 kts 60°
2026-05-08 00:07 43.68472 -79.62097 568 ft 2 kts 61°
2026-05-08 00:07 43.68464 -79.62117 566 ft 2 kts 61°
2026-05-08 00:08 43.68456 -79.62137 568 ft 2 kts 61°
2026-05-08 00:08 43.68448 -79.62157 564 ft 2 kts 58°
2026-05-08 00:08 43.68439 -79.62172 564 ft 1 kts 21°
2026-05-08 00:08 43.68440 -79.62172 564 ft 1 kts 17°
2026-05-08 00:09 43.68453 -79.62166 569 ft 3 kts 17°
2026-05-08 00:09 43.68465 -79.62161 568 ft 0 kts 17°
2026-05-08 00:09 43.68459 -79.62164 571 ft 2 kts 16°
2026-05-08 00:09 43.68443 -79.62170 564 ft 2 kts 15°
2026-05-08 00:10 43.68436 -79.62173 564 ft 0 kts 15°
2026-05-08 00:10 43.68449 -79.62170 570 ft 2 kts
2026-05-08 00:10 43.68456 -79.62178 568 ft 3 kts 313°
2026-05-08 00:11 43.68446 -79.62224 568 ft 8 kts 229°
2026-05-08 00:11 43.68428 -79.62250 570 ft 0 kts 226°
2026-05-08 00:11 43.68428 -79.62251 570 ft 0 kts 226°
2026-05-08 00:11 43.68427 -79.62251 570 ft 1 kts 226°
2026-05-08 00:12 43.68401 -79.62289 572 ft 11 kts 226°
2026-05-08 00:12 43.68374 -79.62329 566 ft 2 kts 226°
2026-05-08 00:12 43.68362 -79.62346 564 ft 4 kts 226°
2026-05-08 00:12 43.68339 -79.62372 568 ft 5 kts 218°
2026-05-08 00:13 43.68318 -79.62378 564 ft 2 kts 162°
2026-05-08 00:13 43.68311 -79.62373 569 ft 1 kts 152°
2026-05-08 00:13 43.68302 -79.62363 573 ft 3 kts 140°
2026-05-08 00:13 43.68280 -79.62333 566 ft 6 kts 134°
2026-05-08 00:14 43.68254 -79.62297 564 ft 0 kts 139°
2026-05-08 00:14 43.68248 -79.62291 564 ft 2 kts 143°
2026-05-08 00:14 43.68219 -79.62255 570 ft 10 kts 136°
2026-05-08 00:14 43.68156 -79.62173 564 ft 9 kts 136°
2026-05-08 00:15 43.68108 -79.62110 569 ft 11 kts 136°
2026-05-08 00:15 43.68067 -79.62058 564 ft 0 kts 138°
2026-05-08 00:15 43.68055 -79.62043 564 ft 7 kts 139°
2026-05-08 00:15 43.67993 -79.62015 566 ft 10 kts 188°
2026-05-08 00:16 43.67933 -79.62060 568 ft 10 kts 203°
2026-05-08 00:16 43.67884 -79.62048 571 ft 6 kts 145°
2026-05-08 00:16 43.67859 -79.62019 569 ft 0 kts 144°
2026-05-08 00:16 43.67836 -79.62018 570 ft 8 kts 197°
2026-05-08 00:17 43.67752 -79.62011 576 ft 16 kts 143°
2026-05-08 00:17 43.67688 -79.61934 570 ft 13 kts 137°
2026-05-08 00:17 43.67620 -79.61847 569 ft 14 kts 136°
2026-05-08 00:17 43.67547 -79.61751 569 ft 15 kts 136°
2026-05-08 00:18 43.67512 -79.61704 571 ft 5 kts 136°
2026-05-08 00:18 43.67481 -79.61663 568 ft 8 kts 136°
2026-05-08 00:18 43.67436 -79.61606 571 ft 10 kts 136°
2026-05-08 00:18 43.67382 -79.61535 570 ft 12 kts 136°
2026-05-08 00:19 43.67328 -79.61465 569 ft 8 kts 136°
2026-05-08 00:19 43.67282 -79.61404 566 ft 10 kts 136°
2026-05-08 00:19 43.67222 -79.61349 575 ft 11 kts 172°
2026-05-08 00:19 43.67160 -79.61392 568 ft 10 kts 221°
2026-05-08 00:20 43.67106 -79.61458 570 ft 11 kts 223°
2026-05-08 00:20 43.67051 -79.61529 574 ft 12 kts 223°
2026-05-08 00:20 43.66983 -79.61616 570 ft 15 kts 223°
2026-05-08 00:20 43.66911 -79.61703 570 ft 13 kts 220°
2026-05-08 00:21 43.66841 -79.61788 570 ft 14 kts 221°
2026-05-08 00:21 43.66765 -79.61887 571 ft 16 kts 222°
2026-05-08 00:21 43.66681 -79.61994 569 ft 17 kts 223°
2026-05-08 00:21 43.66586 -79.62114 570 ft 20 kts 222°
2026-05-08 00:22 43.66480 -79.62247 570 ft 22 kts 221°
2026-05-08 00:22 43.66364 -79.62392 568 ft 24 kts 223°
2026-05-08 00:22 43.66294 -79.62477 567 ft 9 kts 213°
2026-05-08 00:22 43.66235 -79.62491 563 ft 10 kts 171°
2026-05-08 00:23 43.66211 -79.62477 568 ft 0 kts 144°
2026-05-08 00:24 43.66196 -79.62458 566 ft 8 kts 137°
2026-05-08 00:24 43.66136 -79.62375 563 ft 14 kts 121°
2026-05-08 00:24 43.66156 -79.62266 571 ft 11 kts 47°
2026-05-08 00:25 43.66332 -79.62009 574 ft 77 kts 46°
2026-05-08 00:25 43.66879 -79.61218 568 ft 147 kts 46°
2026-05-08 00:25 43.67672 -79.60029 821 ft 185 kts 46°
2026-05-08 00:25 43.68589 -79.58656 1715 ft 194 kts 46°
2026-05-08 00:26 43.69487 -79.57326 2868 ft 193 kts 45°
2026-05-08 00:26 43.70431 -79.55931 3505 ft 205 kts 44°
2026-05-08 00:26 43.71447 -79.54428 3965 ft 221 kts 44°
2026-05-08 00:26 43.72272 -79.52635 4461 ft 228 kts 74°
2026-05-08 00:27 43.72304 -79.50374 4459 ft 245 kts 104°
2026-05-08 00:27 43.71526 -79.48265 4528 ft 254 kts 129°
2026-05-08 00:27 43.70429 -79.46257 4596 ft 268 kts 127°
2026-05-08 00:27 43.69330 -79.44149 4715 ft 273 kts 127°
2026-05-08 00:28 43.68229 -79.42006 4854 ft 275 kts 126°
2026-05-08 00:28 43.66952 -79.40139 4919 ft 272 kts 149°
2026-05-08 00:28 43.65208 -79.39256 4973 ft 267 kts 177°
2026-05-08 00:28 43.63376 -79.39536 5216 ft 265 kts 202°
2026-05-08 00:29 43.61708 -79.40530 6299 ft 261 kts 207°
2026-05-08 00:29 43.60071 -79.41573 7244 ft 264 kts 209°
2026-05-08 00:29 43.58417 -79.42675 8248 ft 264 kts 210°
2026-05-08 00:29 43.56759 -79.43810 9197 ft 267 kts 211°
2026-05-08 00:30 43.55111 -79.44994 10153 ft 266 kts 217°
2026-05-08 00:30 43.53595 -79.46542 10694 ft 281 kts 221°
2026-05-08 00:30 43.51994 -79.48256 11064 ft 301 kts 221°
2026-05-08 00:30 43.50284 -79.50078 11448 ft 319 kts 220°
2026-05-08 00:31 43.48497 -79.51990 11971 ft 330 kts 220°
2026-05-08 00:31 43.46707 -79.53903 12815 ft 331 kts 220°
2026-05-08 00:31 43.44872 -79.55866 13566 ft 335 kts 220°
2026-05-08 00:31 43.43034 -79.57829 14250 ft 338 kts 220°
2026-05-08 00:32 43.41166 -79.59824 14870 ft 343 kts 220°
2026-05-08 00:32 43.39275 -79.61839 15478 ft 347 kts 220°
2026-05-08 00:32 43.37373 -79.63865 16093 ft 350 kts 220°
2026-05-08 00:32 43.35435 -79.65929 16665 ft 355 kts 221°
2026-05-08 00:33 43.33513 -79.67973 17244 ft 358 kts 221°
2026-05-08 00:33 43.31551 -79.70057 17824 ft 362 kts 221°
2026-05-08 00:33 43.29556 -79.72175 18369 ft 366 kts 221°
2026-05-08 00:33 43.27532 -79.74323 18869 ft 368 kts 221°
2026-05-08 00:34 43.25376 -79.76193 19359 ft 377 kts 206°
2026-05-08 00:34 43.22866 -79.77232 19882 ft 382 kts 199°
2026-05-08 00:34 43.20300 -79.78156 20325 ft 386 kts 199°
2026-05-08 00:34 43.17748 -79.79050 20799 ft 389 kts 198°
2026-05-08 00:35 43.15116 -79.79956 21268 ft 391 kts 199°
2026-05-08 00:35 43.12457 -79.80861 21705 ft 396 kts 199°
2026-05-08 00:35 43.09773 -79.81770 22167 ft 398 kts 199°
2026-05-08 00:35 43.07078 -79.82682 22637 ft 401 kts 199°
2026-05-08 00:36 43.04392 -79.83589 23090 ft 404 kts 199°
2026-05-08 00:36 43.01623 -79.84524 23544 ft 407 kts 199°
2026-05-08 00:36 42.98919 -79.85437 23919 ft 409 kts 199°
2026-05-08 00:36 42.96259 -79.86333 24306 ft 410 kts 200°
2026-05-08 00:37 42.93481 -79.87269 24761 ft 411 kts 200°
2026-05-08 00:37 42.90697 -79.88205 25151 ft 414 kts 200°
2026-05-08 00:37 42.87896 -79.89146 25564 ft 415 kts 200°
2026-05-08 00:38 42.82222 -79.90911 26349 ft 423 kts 197°
2026-05-08 00:38 42.79375 -79.91613 26736 ft 424 kts 198°
2026-05-08 00:38 42.76431 -79.92358 27103 ft 426 kts 199°
2026-05-08 00:38 42.73576 -79.93091 27505 ft 427 kts 199°
2026-05-08 00:39 42.70648 -79.93843 27863 ft 429 kts 199°
2026-05-08 00:39 42.67707 -79.94598 28229 ft 431 kts 199°
2026-05-08 00:39 42.64753 -79.95356 28581 ft 433 kts 199°
2026-05-08 00:39 42.61788 -79.96116 28923 ft 435 kts 199°
2026-05-08 00:40 42.58807 -79.96880 29266 ft 437 kts 199°
2026-05-08 00:40 42.55819 -79.97645 29646 ft 436 kts 200°
2026-05-08 00:40 42.52839 -79.98407 30065 ft 437 kts 200°
2026-05-08 00:40 42.49860 -79.99167 30279 ft 440 kts 200°
2026-05-08 00:41 42.46886 -79.99926 30552 ft 441 kts 200°
2026-05-08 00:41 42.43872 -80.00694 30883 ft 441 kts 200°
2026-05-08 00:41 42.40863 -80.01460 31215 ft 440 kts 200°
2026-05-08 00:41 42.37850 -80.02227 31543 ft 440 kts 200°
2026-05-08 00:42 42.34836 -80.02993 31873 ft 440 kts 200°
2026-05-08 00:42 42.31835 -80.03756 32201 ft 440 kts 200°
2026-05-08 00:42 42.28825 -80.04519 32523 ft 440 kts 200°
2026-05-08 00:42 42.25816 -80.05286 32845 ft 439 kts 201°
2026-05-08 00:43 42.22933 -80.06376 33155 ft 430 kts 207°
2026-05-08 00:43 42.20071 -80.07572 33457 ft 431 kts 207°
2026-05-08 00:43 42.17213 -80.08775 33746 ft 430 kts 207°
2026-05-08 00:43 42.14368 -80.09978 34121 ft 427 kts 207°
2026-05-08 00:44 42.11543 -80.11171 34367 ft 428 kts 207°
2026-05-08 00:44 42.08706 -80.12370 34577 ft 429 kts 207°
2026-05-08 00:44 42.05857 -80.13573 34803 ft 429 kts 207°
2026-05-08 00:44 42.03042 -80.14761 35023 ft 430 kts 207°
2026-05-08 00:45 42.00196 -80.15960 35245 ft 431 kts 207°
2026-05-08 00:45 41.97344 -80.17161 35451 ft 431 kts 207°
2026-05-08 00:45 41.94505 -80.18356 35780 ft 429 kts 207°
2026-05-08 00:45 41.91652 -80.19555 35943 ft 430 kts 207°
2026-05-08 00:46 41.88799 -80.20752 35953 ft 430 kts 207°
2026-05-08 00:46 41.83144 -80.23124 35947 ft 428 kts 207°
2026-05-08 00:47 41.77450 -80.25507 35917 ft 429 kts 208°
2026-05-08 00:47 41.71788 -80.27872 35943 ft 428 kts 208°
2026-05-08 00:48 41.66141 -80.30227 35942 ft 428 kts 208°
2026-05-08 00:48 41.60449 -80.32596 35943 ft 428 kts 208°
2026-05-08 00:49 41.54768 -80.34956 35932 ft 427 kts 208°
2026-05-08 00:49 41.49122 -80.37297 35945 ft 426 kts 208°
2026-05-08 00:50 41.43453 -80.39643 35982 ft 426 kts 208°
2026-05-08 00:50 41.37918 -80.41930 35984 ft 426 kts 208°
2026-05-08 00:51 41.32270 -80.44260 35983 ft 424 kts 209°
2026-05-08 00:51 41.26574 -80.46605 35978 ft 424 kts 209°
2026-05-08 00:52 41.21018 -80.48890 35980 ft 424 kts 209°
2026-05-08 00:52 41.15531 -80.51404 35939 ft 420 kts 211°
2026-05-08 00:53 41.10106 -80.53907 35987 ft 418 kts 211°
2026-05-08 00:53 41.04738 -80.56373 35977 ft 418 kts 211°
2026-05-08 00:54 40.99266 -80.58883 35982 ft 419 kts 211°
2026-05-08 00:54 40.93795 -80.61387 35960 ft 418 kts 211°
2026-05-08 00:55 40.88349 -80.63876 36016 ft 419 kts 211°
2026-05-08 00:55 40.82845 -80.66387 36013 ft 419 kts 211°
2026-05-08 00:56 40.77364 -80.68883 36014 ft 419 kts 211°
2026-05-08 00:56 40.71974 -80.71333 36000 ft 420 kts 211°
2026-05-08 00:57 40.66437 -80.73846 36009 ft 421 kts 211°
2026-05-08 00:57 40.60992 -80.76312 36011 ft 421 kts 211°
2026-05-08 00:58 40.55468 -80.78810 36011 ft 421 kts 211°
2026-05-08 00:58 40.49971 -80.81292 35993 ft 420 kts 211°
2026-05-08 00:59 40.44435 -80.83787 35995 ft 420 kts 211°
2026-05-08 00:59 40.38901 -80.86276 35993 ft 421 kts 211°
2026-05-08 01:00 40.33379 -80.88756 35983 ft 420 kts 211°
2026-05-08 01:00 40.27844 -80.91238 35996 ft 421 kts 211°
2026-05-08 01:01 40.22398 -80.93675 35985 ft 421 kts 211°
2026-05-08 01:01 40.16856 -80.96151 35995 ft 421 kts 211°
2026-05-08 01:02 40.11342 -80.98610 35931 ft 421 kts 211°
2026-05-08 01:02 40.05846 -81.01057 35994 ft 420 kts 211°
2026-05-08 01:03 40.00378 -81.03487 35994 ft 420 kts 211°
2026-05-08 01:03 39.94874 -81.05930 35998 ft 420 kts 211°
2026-05-08 01:04 39.89388 -81.08360 35968 ft 419 kts 212°
2026-05-08 01:04 39.84120 -81.10689 35991 ft 418 kts 212°
2026-05-08 01:05 39.78652 -81.13104 35995 ft 418 kts 212°
2026-05-08 01:05 39.73341 -81.15445 35996 ft 417 kts 212°
2026-05-08 01:06 39.67907 -81.17837 35932 ft 416 kts 212°
2026-05-08 01:06 39.62510 -81.20208 35995 ft 415 kts 212°
2026-05-08 01:07 39.57047 -81.22605 35999 ft 415 kts 212°
2026-05-08 01:07 39.51596 -81.25037 35990 ft 414 kts 213°
2026-05-08 01:08 39.46204 -81.27484 35971 ft 414 kts 213°
2026-05-08 01:08 39.40792 -81.29931 35993 ft 413 kts 213°
2026-05-08 01:09 39.35380 -81.32374 36018 ft 413 kts 213°
2026-05-08 01:09 39.30010 -81.34794 36015 ft 413 kts 213°
2026-05-08 01:10 39.24673 -81.37196 35952 ft 413 kts 213°
2026-05-08 01:10 39.19347 -81.39588 36008 ft 411 kts 213°
2026-05-08 01:11 39.14070 -81.41955 36009 ft 411 kts 213°
2026-05-08 01:11 39.08768 -81.44330 36008 ft 411 kts 213°
2026-05-08 01:12 39.03416 -81.46722 35950 ft 411 kts 213°
2026-05-08 01:12 38.98145 -81.49075 36003 ft 409 kts 213°
2026-05-08 01:13 38.92927 -81.51401 36001 ft 408 kts 213°
2026-05-08 01:13 38.87561 -81.53788 36001 ft 409 kts 213°
2026-05-08 01:14 38.82277 -81.56136 36004 ft 409 kts 213°
2026-05-08 01:14 38.76932 -81.58507 36000 ft 406 kts 213°
2026-05-08 01:15 38.71670 -81.60837 36000 ft 406 kts 213°
2026-05-08 01:15 38.66381 -81.63176 36015 ft 406 kts 213°
2026-05-08 01:16 38.61041 -81.65533 35997 ft 406 kts 213°
2026-05-08 01:16 38.55720 -81.67879 35995 ft 407 kts 213°
2026-05-08 01:17 38.50369 -81.70234 36000 ft 406 kts 213°
2026-05-08 01:17 38.45994 -81.72156 36003 ft 406 kts 213°
2026-05-08 01:18 38.39790 -81.74880 36006 ft 407 kts 213°
2026-05-08 01:18 38.34464 -81.77215 35956 ft 405 kts 214°
2026-05-08 01:19 38.29248 -81.79506 36004 ft 405 kts 214°
2026-05-08 01:19 38.23951 -81.81830 36002 ft 405 kts 214°
2026-05-08 01:20 38.18701 -81.84130 36012 ft 405 kts 214°
2026-05-08 01:20 38.13376 -81.86459 36001 ft 405 kts 214°
2026-05-08 01:21 38.08977 -81.88379 36014 ft 405 kts 214°
2026-05-08 01:21 38.02797 -81.91073 36010 ft 405 kts 214°
2026-05-08 01:22 37.98407 -81.92984 36006 ft 405 kts 214°
2026-05-08 01:22 37.93090 -81.95296 36007 ft 405 kts 214°
2026-05-08 01:23 37.87798 -81.97592 35999 ft 403 kts 214°
2026-05-08 01:23 37.82501 -81.99888 36000 ft 402 kts 214°
2026-05-08 01:24 37.77259 -82.02156 36020 ft 403 kts 214°
2026-05-08 01:24 37.72005 -82.04426 36017 ft 402 kts 214°
2026-05-08 01:25 37.65861 -82.07076 35987 ft 399 kts 215°
2026-05-08 01:25 37.61468 -82.08970 35995 ft 398 kts 216°
2026-05-08 01:26 37.56269 -82.11206 36000 ft 398 kts 215°
2026-05-08 01:26 37.51048 -82.13449 36004 ft 398 kts 215°
2026-05-08 01:27 37.45839 -82.15682 36016 ft 398 kts 215°
2026-05-08 01:27 37.40630 -82.17913 36013 ft 397 kts 216°
2026-05-08 01:28 37.35457 -82.20125 35999 ft 397 kts 216°
2026-05-08 01:28 37.30289 -82.22332 36004 ft 397 kts 216°
2026-05-08 01:29 37.25088 -82.24550 36016 ft 397 kts 216°
2026-05-08 01:29 37.19959 -82.26733 35959 ft 396 kts 216°
2026-05-08 01:30 37.14743 -82.28951 35996 ft 397 kts 216°
2026-05-08 01:30 37.09569 -82.31148 35998 ft 396 kts 216°
2026-05-08 01:30 37.07025 -82.32365 35989 ft 382 kts 222°
2026-05-08 01:31 37.04647 -82.33800 36011 ft 385 kts 221°
2026-05-08 01:31 36.99791 -82.36572 35999 ft 385 kts 220°
2026-05-08 01:32 36.94913 -82.39325 35986 ft 384 kts 220°
2026-05-08 01:32 36.90022 -82.42077 36003 ft 385 kts 220°
2026-05-08 01:33 36.85141 -82.44817 36003 ft 385 kts 220°
2026-05-08 01:33 36.80382 -82.47487 35994 ft 385 kts 220°
2026-05-08 01:34 36.75497 -82.50223 35950 ft 385 kts 220°
2026-05-08 01:34 36.70613 -82.52954 36002 ft 385 kts 220°
2026-05-08 01:35 36.65731 -82.55682 35985 ft 384 kts 220°
2026-05-08 01:35 36.60869 -82.58394 35992 ft 384 kts 220°
2026-05-08 01:36 36.56039 -82.61084 35983 ft 384 kts 220°
2026-05-08 01:36 36.51162 -82.63797 35930 ft 384 kts 220°
2026-05-08 01:37 36.46286 -82.66506 35994 ft 384 kts 220°
2026-05-08 01:37 36.41414 -82.69209 36006 ft 384 kts 220°
2026-05-08 01:38 36.36537 -82.71910 36009 ft 384 kts 220°
2026-05-08 01:38 36.34105 -82.73256 35897 ft 384 kts 220°
2026-05-08 01:38 36.31669 -82.74603 35691 ft 383 kts 220°
2026-05-08 01:38 36.29277 -82.75925 35488 ft 382 kts 220°
2026-05-08 01:39 36.26854 -82.77263 35230 ft 383 kts 219°
2026-05-08 01:39 36.24444 -82.78642 35044 ft 380 kts 221°
2026-05-08 01:39 36.22056 -82.80059 34844 ft 381 kts 221°
2026-05-08 01:39 36.19661 -82.81472 34642 ft 381 kts 221°
2026-05-08 01:40 36.17272 -82.82877 34450 ft 381 kts 220°
2026-05-08 01:40 36.14873 -82.84287 34251 ft 381 kts 220°
2026-05-08 01:40 36.12483 -82.85690 34057 ft 381 kts 220°
2026-05-08 01:40 36.10119 -82.87077 33842 ft 382 kts 220°
2026-05-08 01:41 36.07718 -82.88484 33621 ft 383 kts 220°
2026-05-08 01:41 36.05310 -82.89895 33391 ft 383 kts 220°
2026-05-08 01:41 36.02904 -82.91303 33118 ft 384 kts 220°
2026-05-08 01:41 36.00487 -82.92717 32903 ft 384 kts 220°
2026-05-08 01:42 35.98066 -82.94132 32692 ft 385 kts 220°
2026-05-08 01:42 35.95649 -82.95544 32459 ft 385 kts 220°
2026-05-08 01:42 35.93223 -82.96961 32248 ft 386 kts 220°
2026-05-08 01:42 35.90811 -82.98367 32035 ft 386 kts 220°
2026-05-08 01:43 35.88402 -82.99773 31829 ft 387 kts 220°
2026-05-08 01:43 35.85965 -83.01193 31586 ft 387 kts 220°
2026-05-08 01:43 35.83530 -83.02610 31394 ft 388 kts 220°
2026-05-08 01:43 35.81116 -83.04014 31220 ft 389 kts 220°
2026-05-08 01:44 35.78669 -83.05438 30981 ft 389 kts 220°
2026-05-08 01:44 35.76214 -83.06867 30784 ft 390 kts 220°
2026-05-08 01:44 35.73759 -83.08295 30583 ft 390 kts 220°
2026-05-08 01:44 35.71305 -83.09722 30340 ft 391 kts 220°
2026-05-08 01:45 35.68844 -83.11149 30179 ft 391 kts 220°
2026-05-08 01:45 35.66392 -83.12575 29889 ft 391 kts 220°
2026-05-08 01:45 35.63929 -83.14005 29670 ft 393 kts 220°
2026-05-08 01:45 35.61452 -83.15445 29413 ft 394 kts 220°
2026-05-08 01:46 35.59001 -83.16865 29199 ft 396 kts 220°
2026-05-08 01:46 35.56513 -83.18308 28972 ft 397 kts 219°
2026-05-08 01:46 35.54013 -83.19755 28656 ft 397 kts 219°
2026-05-08 01:46 35.51513 -83.21203 28425 ft 398 kts 219°
2026-05-08 01:47 35.49009 -83.22650 28177 ft 398 kts 219°
2026-05-08 01:47 35.46495 -83.24102 27982 ft 399 kts 218°
2026-05-08 01:47 35.43994 -83.25540 27728 ft 400 kts 218°
2026-05-08 01:48 35.38935 -83.28406 27286 ft 401 kts 218°
2026-05-08 01:48 35.36398 -83.29843 27037 ft 402 kts 217°
2026-05-08 01:48 35.33857 -83.31280 26823 ft 403 kts 217°
2026-05-08 01:48 35.31316 -83.32711 26527 ft 404 kts 217°
2026-05-08 01:49 35.28757 -83.34160 26329 ft 405 kts 217°
2026-05-08 01:49 35.26233 -83.35586 26111 ft 405 kts 216°
2026-05-08 01:49 35.23672 -83.37031 25887 ft 406 kts 216°
2026-05-08 01:49 35.21127 -83.38466 25677 ft 406 kts 216°
2026-05-08 01:50 35.18562 -83.39911 25478 ft 406 kts 216°
2026-05-08 01:50 35.15992 -83.41358 25249 ft 406 kts 216°
2026-05-08 01:50 35.13424 -83.42803 25043 ft 407 kts 215°
2026-05-08 01:50 35.10859 -83.44246 24828 ft 407 kts 215°
2026-05-08 01:51 35.08282 -83.45694 24632 ft 407 kts 215°
2026-05-08 01:51 35.05726 -83.47164 24369 ft 404 kts 216°
2026-05-08 01:51 35.03195 -83.48625 24175 ft 402 kts 215°
2026-05-08 01:51 35.00703 -83.50061 24025 ft 400 kts 215°
2026-05-08 01:52 34.98205 -83.51500 24005 ft 400 kts 215°
2026-05-08 01:52 34.95684 -83.52950 23966 ft 400 kts 215°
2026-05-08 01:52 34.93165 -83.54396 23993 ft 401 kts 215°
2026-05-08 01:52 34.90639 -83.55848 23984 ft 403 kts 215°
2026-05-08 01:53 34.88118 -83.57295 23993 ft 404 kts 214°
2026-05-08 01:53 34.85583 -83.58749 23985 ft 404 kts 215°
2026-05-08 01:53 34.83088 -83.60176 24010 ft 387 kts 215°
2026-05-08 01:53 34.80688 -83.61548 23733 ft 376 kts 216°
2026-05-08 01:54 34.78338 -83.62897 23252 ft 372 kts 216°
2026-05-08 01:54 34.76054 -83.64203 22775 ft 367 kts 216°
2026-05-08 01:54 34.73758 -83.65516 22283 ft 364 kts 216°
2026-05-08 01:54 34.71483 -83.66816 21804 ft 360 kts 216°
2026-05-08 01:55 34.69220 -83.68110 21337 ft 362 kts 215°
2026-05-08 01:55 34.66925 -83.69420 20845 ft 367 kts 215°
2026-05-08 01:55 34.64596 -83.70748 20355 ft 371 kts 215°
2026-05-08 01:55 34.62253 -83.72085 19808 ft 372 kts 214°
2026-05-08 01:56 34.59922 -83.73420 19364 ft 371 kts 214°
2026-05-08 01:56 34.57589 -83.74753 18913 ft 370 kts 214°
2026-05-08 01:56 34.55264 -83.76081 18440 ft 367 kts 214°
2026-05-08 01:56 34.53007 -83.77369 17937 ft 365 kts 214°
2026-05-08 01:57 34.50727 -83.78670 17579 ft 359 kts 214°
2026-05-08 01:57 34.48494 -83.79943 17252 ft 352 kts 214°
2026-05-08 01:57 34.46298 -83.81195 16807 ft 350 kts 214°
2026-05-08 01:57 34.44086 -83.82455 16406 ft 353 kts 214°
2026-05-08 01:58 34.41864 -83.83719 15976 ft 358 kts 213°
2026-05-08 01:58 34.39605 -83.85004 15552 ft 358 kts 213°
2026-05-08 01:58 34.37347 -83.86287 15083 ft 357 kts 213°
2026-05-08 01:58 34.35108 -83.87559 14622 ft 355 kts 213°
2026-05-08 01:59 34.32885 -83.88851 14199 ft 351 kts 215°
2026-05-08 01:59 34.30766 -83.90200 13919 ft 342 kts 216°
2026-05-08 01:59 34.28749 -83.91475 13757 ft 320 kts 217°
2026-05-08 01:59 34.26840 -83.92677 13605 ft 302 kts 217°
2026-05-08 02:00 34.25025 -83.93820 13438 ft 285 kts 218°
2026-05-08 02:00 34.23302 -83.94905 13310 ft 275 kts 218°
2026-05-08 02:00 34.21647 -83.95947 13171 ft 266 kts 218°
2026-05-08 02:00 34.20006 -83.96980 13054 ft 270 kts 218°
2026-05-08 02:01 34.18320 -83.98047 13006 ft 277 kts 218°
2026-05-08 02:01 34.16630 -83.99114 13013 ft 282 kts 218°
2026-05-08 02:01 34.14891 -84.00211 12881 ft 284 kts 217°
2026-05-08 02:01 34.13125 -84.01325 12353 ft 286 kts 217°
2026-05-08 02:02 34.11378 -84.02427 11879 ft 280 kts 217°
2026-05-08 02:02 34.09683 -84.03496 11583 ft 274 kts 217°
2026-05-08 02:02 34.08012 -84.04549 11349 ft 274 kts 217°
2026-05-08 02:02 34.06325 -84.05612 11080 ft 273 kts 217°
2026-05-08 02:03 34.04646 -84.06669 10853 ft 271 kts 217°
2026-05-08 02:03 34.02852 -84.07474 10618 ft 283 kts 200°
2026-05-08 02:03 34.00893 -84.07742 10402 ft 279 kts 194°
2026-05-08 02:03 33.98995 -84.07899 10359 ft 268 kts 194°
2026-05-08 02:04 33.97135 -84.08043 10285 ft 273 kts 194°
2026-05-08 02:04 33.95232 -84.08205 9923 ft 276 kts 194°
2026-05-08 02:04 33.93284 -84.08399 9383 ft 282 kts 194°
2026-05-08 02:04 33.91340 -84.08611 9119 ft 278 kts 194°
2026-05-08 02:05 33.89473 -84.08807 9008 ft 268 kts 194°
2026-05-08 02:05 33.87646 -84.08993 8806 ft 259 kts 194°
2026-05-08 02:05 33.85890 -84.09165 8650 ft 249 kts 194°
2026-05-08 02:05 33.84222 -84.09317 8477 ft 236 kts 194°
2026-05-08 02:06 33.82619 -84.09455 8248 ft 226 kts 194°
2026-05-08 02:06 33.81087 -84.09588 8028 ft 216 kts 194°
2026-05-08 02:06 33.79635 -84.09691 7836 ft 203 kts 194°
2026-05-08 02:06 33.78271 -84.09778 7583 ft 190 kts 194°
2026-05-08 02:07 33.76992 -84.09840 7131 ft 183 kts 194°
2026-05-08 02:07 33.75671 -84.09925 6467 ft 196 kts 193°
2026-05-08 02:07 33.74343 -84.10071 6069 ft 193 kts 194°
2026-05-08 02:07 33.73081 -84.10493 5541 ft 185 kts 221°
2026-05-08 02:08 33.72164 -84.11522 5136 ft 178 kts 233°
2026-05-08 02:08 33.71344 -84.12643 4712 ft 179 kts 234°
2026-05-08 02:08 33.70530 -84.13784 4299 ft 179 kts 234°
2026-05-08 02:08 33.69809 -84.14925 4129 ft 164 kts 251°
2026-05-08 02:09 33.69449 -84.16218 4043 ft 164 kts 256°
2026-05-08 02:09 33.69080 -84.17524 3974 ft 166 kts 254°
2026-05-08 02:09 33.68695 -84.18822 3842 ft 162 kts 254°
2026-05-08 02:09 33.68309 -84.20085 3326 ft 164 kts 254°
2026-05-08 02:10 33.67911 -84.21363 2953 ft 160 kts 253°
2026-05-08 02:10 33.67512 -84.22632 2991 ft 165 kts 253°
2026-05-08 02:10 33.67102 -84.23919 3020 ft 169 kts 253°
2026-05-08 02:10 33.66680 -84.25234 3025 ft 169 kts 253°
2026-05-08 02:11 33.66255 -84.26553 3012 ft 169 kts 253°
2026-05-08 02:11 33.65833 -84.27855 2993 ft 169 kts 253°
2026-05-08 02:11 33.65408 -84.29163 2964 ft 165 kts 253°
2026-05-08 02:11 33.65040 -84.30469 2655 ft 163 kts 266°
2026-05-08 02:12 33.64964 -84.31817 2507 ft 166 kts 272°
2026-05-08 02:12 33.64951 -84.33200 2291 ft 159 kts 274°
2026-05-08 02:12 33.64952 -84.34448 2086 ft 147 kts 275°
2026-05-08 02:12 33.64953 -84.35642 1903 ft 141 kts 274°
2026-05-08 02:13 33.64954 -84.36815 1712 ft 140 kts 274°
2026-05-08 02:13 33.64957 -84.37978 1524 ft 140 kts 272°
2026-05-08 02:13 33.64963 -84.39144 1365 ft 139 kts 271°
2026-05-08 02:13 33.64951 -84.40318 1195 ft 141 kts 271°
2026-05-08 02:14 33.64955 -84.41483 1048 ft 136 kts 270°
2026-05-08 02:14 33.64957 -84.42388 1038 ft 58 kts 269°
2026-05-08 02:14 33.64922 -84.42679 1038 ft 27 kts 250°
2026-05-08 02:14 33.64874 -84.42803 1038 ft 4 kts 240°
2026-05-08 02:15 33.64866 -84.42819 1038 ft 1 kts 240°
2026-05-08 02:15 33.64857 -84.42837 1038 ft 4 kts 240°
2026-05-08 02:15 33.64838 -84.42869 1038 ft 5 kts 213°
2026-05-08 02:15 33.64801 -84.42879 1038 ft 6 kts 181°
2026-05-08 02:16 33.64749 -84.42881 1038 ft 8 kts 181°
2026-05-08 02:16 33.64684 -84.42870 1039 ft 11 kts 163°
2026-05-08 02:16 33.64616 -84.42840 1038 ft 12 kts 160°
2026-05-08 02:16 33.64546 -84.42780 1038 ft 13 kts 125°
2026-05-08 02:17 33.64536 -84.42724 1038 ft 1 kts 103°
2026-05-08 02:17 33.64534 -84.42715 1038 ft 1 kts 104°
2026-05-08 02:17 33.64533 -84.42711 1038 ft 0 kts 104°
2026-05-08 02:18 33.64536 -84.42731 1038 ft 2 kts 96°
2026-05-08 02:18 33.64537 -84.42750 1038 ft 2 kts 85°
2026-05-08 02:18 33.64535 -84.42766 1038 ft 0 kts 84°
2026-05-08 02:18 33.64535 -84.42765 1038 ft 0 kts 85°
2026-05-08 02:19 33.64523 -84.42724 1038 ft 10 kts 128°
2026-05-08 02:19 33.64454 -84.42714 1038 ft 13 kts 199°
2026-05-08 02:19 33.64358 -84.42722 1038 ft 15 kts 146°
2026-05-08 02:20 33.64327 -84.42654 1038 ft 3 kts 93°
2026-05-08 02:20 33.64330 -84.42649 1038 ft 0 kts 51°
2026-05-08 02:20 33.64348 -84.42625 1038 ft 0 kts 68°
2026-05-08 02:20 33.64351 -84.42617 1038 ft 0 kts 68°
2026-05-08 02:21 33.64350 -84.42624 1038 ft 2 kts 107°
2026-05-08 02:21 33.64352 -84.42634 1038 ft 0 kts 92°
2026-05-08 02:21 33.64352 -84.42633 1038 ft 0 kts 89°